Weather History for Fort Leonard Wood, MO

Change the Weather History Date:

Tuesday, March 12, 2013

  Actual Average Record
Temperature  
Mean Temperature 37 °F -  
Max Temperature 50 °F 50 °F 79 °F (2012)
Min Temperature 24 °F 34 °F 5 °F (1998)
Degree Days  
Heating Degree Days 28    
Moisture  
Dew Point 23 °F    
Average Humidity 58    
Maximum Humidity 96    
Minimum Humidity 32    
Precipitation  
Precipitation 0.00 in - - ()
Sea Level Pressure  
Sea Level Pressure 30.15 in    
Wind  
Wind Speed 7 mph (West)    
Max Wind Speed 15 mph    
Max Gust Speed 29 mph    
Visibility 10 miles    
Events      
Averages and records for this station are not official NWS values.
T = Trace of Precipitation, MM = Missing Value Source: NWS Daily Summary

Daily Weather History Graph

Daily Weather History Graph

Search for Another Location

Airport:

Trip Planner

Search our weather history database for the weather conditions in past years. The results will help you decide how hot, cold, wet, or windy it might be!

Date:

Astronomy

Mar. 12, 2013 Rise Set
Actual Time 7:23 AM CDT 7:13 PM CDT
Civil Twilight 6:57 AM CDT 7:39 PM CDT
Nautical Twilight 6:27 AM CDT 8:09 PM CDT
Astronomical Twilight 5:56 AM CDT 8:40 PM CDT
Moon 7:32 AM CDT (3/12) 8:26 PM CDT (3/12)
Length of Visible Light 12h 41m
Length of Day
11h 49m
New Moon, 1% of the Moon is Illuminated
Mar 12
New Moon
Mar 19
First Quarter
Mar 27
Full
Apr 2
Last Quarter
Apr 10
New

Hourly Weather History & Observations

Time (CDT) Temp. Windchill Dew Point Humidity Pressure Visibility Wind Dir Wind Speed Gust Speed Precip Events Conditions
12:58 AM 25.5 °F 21.3 °F 23.9 °F 94% 30.06 in 10.0 mi SW 3.5 mph - N/A   Clear
1:58 AM 27.1 °F - 24.6 °F 90% 30.04 in 10.0 mi South 2.3 mph - N/A   Clear
2:58 AM 25.5 °F 19.9 °F 23.9 °F 94% 30.06 in 10.0 mi SW 4.6 mph - N/A   Clear
3:58 AM 24.1 °F 19.7 °F 23.0 °F 96% 30.06 in 10.0 mi SW 3.5 mph - N/A   Clear
4:58 AM 25.2 °F 19.5 °F 23.2 °F 92% 30.09 in 10.0 mi SW 4.6 mph - N/A   Clear
5:58 AM 26.1 °F - 23.0 °F 88% 30.10 in 10.0 mi West 2.3 mph - N/A   Clear
6:58 AM 26.8 °F 22.8 °F 22.1 °F 83% 30.11 in 10.0 mi West 3.5 mph - N/A   Clear
7:58 AM 29.7 °F 24.7 °F 21.9 °F 73% 30.13 in 10.0 mi West 4.6 mph - N/A   Clear
8:58 AM 32.5 °F 25.5 °F 22.5 °F 66% 30.16 in 10.0 mi West 8.1 mph - N/A   Partly Cloudy
9:58 AM 35.4 °F 30.5 °F 22.6 °F 60% 30.17 in 10.0 mi West 5.8 mph - N/A   Scattered Clouds
10:58 AM 38.7 °F 33.6 °F 23.0 °F 53% 30.20 in 10.0 mi Variable 6.9 mph 17.3 mph N/A   Scattered Clouds
11:58 AM 44.1 °F 39.5 °F 23.5 °F 44% 30.19 in 10.0 mi NW 8.1 mph - N/A   Mostly Cloudy
12:58 PM 48.7 °F - 21.4 °F 34% 30.19 in 10.0 mi NW 9.2 mph 18.4 mph N/A   Scattered Clouds
1:58 PM 48.6 °F - 20.7 °F 33% 30.17 in 10.0 mi NW 11.5 mph - N/A   Mostly Cloudy
2:39 PM 50.0 °F - 21.2 °F 32% 30.12 in 10.0 mi NW 15.0 mph 24.2 mph N/A   Overcast
2:53 PM 50.0 °F - 21.2 °F 32% 30.12 in 10.0 mi NW 15.0 mph 28.8 mph N/A   Overcast
2:58 PM 50.0 °F - 21.2 °F 32% 30.15 in 10.0 mi WNW 15.0 mph 28.8 mph N/A   Overcast
3:26 PM 50.0 °F - 21.2 °F 32% 30.12 in 10.0 mi West 12.7 mph 27.6 mph N/A   Overcast
3:58 PM 49.6 °F - 21.6 °F 33% 30.15 in 10.0 mi West 10.4 mph 24.2 mph N/A   Overcast
4:58 PM 48.4 °F - 23.2 °F 37% 30.15 in 10.0 mi WSW 12.7 mph 24.2 mph N/A   Mostly Cloudy
5:58 PM 46.9 °F - 23.9 °F 40% 30.15 in 10.0 mi WNW 10.4 mph 18.4 mph N/A   Mostly Cloudy
6:58 PM 45.3 °F 39.7 °F 19.4 °F 36% 30.18 in 10.0 mi WNW 11.5 mph 23.0 mph N/A   Mostly Cloudy
7:58 PM 39.6 °F 33.5 °F 25.3 °F 57% 30.21 in 10.0 mi NW 9.2 mph - N/A   Partly Cloudy
8:58 PM 38.5 °F 32.1 °F 23.4 °F 55% 30.24 in 10.0 mi WNW 9.2 mph 19.6 mph N/A   Clear
9:58 PM 36.5 °F 30.3 °F 23.5 °F 59% 30.25 in 10.0 mi NW 8.1 mph - N/A   Clear
10:58 PM 35.2 °F 28.8 °F 23.9 °F 63% 30.27 in 10.0 mi NW 8.1 mph 18.4 mph N/A   Clear